Temp
65 64 64 65 65 68 68 68 69 68 68 69 69 69 70 70 71 67 62 60 61 63 64 65 65 65 65 65 65 65 65 65 65 65 64 64 64 63 63 64 64 64 64
61 58 57 58 61 65 71 71 70 66 69 66 66 66 67 67 67 67 65 60 58 59 60 62 63 63 65 64 64 64 64 64 64 64 63 63 62 62 62 63 63 63 64
58 57 57 59 65 69 68 67 66 64 67 65 63 63 64 62 63 63 65 64 60 56 57 59 60 61 62 63 63 63 63 63 63 63 62 62 61 61 61 62 62 62 62
61 59 58 61 68 66 68 66 63 64 64 64 62 63 63 62 61 62 62 63 63 62 55 55 56 58 59 61 62 62 62 61 61 61 61 61 60 60 61 61 61 61 61
64 61 62 65 64 64 64 63 63 64 61 61 60 61 61 61 60 61 59 59 59 61 61 53 53 54 55 57 59 60 61 61 60 60 59 59 59 59 60 60 60 61 61
63 65 66 63 65 62 60 64 62 62 60 60 59 57 58 59 59 58 57 58 58 58 60 60 60 53 52 54 55 58 59 59 59 58 58 58 58 58 58 59 59 59 60
64 65 65 62 64 64 63 62 61 59 55 56 54 52 53 55 56 58 59 59 58 58 58 59 60 59 55 51 52 54 56 57 57 57 56 56 56 56 57 57 58 58 59
63 63 62 62 62 63 60 58 58 57 57 58 59 56 50 52 55 56 57 57 56 57 55 54 53 54 52 51 49 49 52 54 55 55 55 54 55 55 56 56 56 56 57
60 62 60 61 61 61 57 59 60 58 56 58 61 61 55 55 49 53 54 55 54 56 56 54 51 51 51 52 53 50 47 50 52 54 54 54 53 54 54 55 55 55 56
57 60 59 61 58 62 60 60 61 59 59 54 58 59 61 57 54 43 50 52 54 53 53 55 54 54 50 55 50 47 46 47 49 51 52 52 53 53 53 53 54 54 54
57 58 56 59 60 61 61 60 59 59 61 60 59 58 57 60 60 55 43 47 53 54 54 54 54 54 53 54 53 47 45 45 47 49 50 50 51 51 52 53 52 52 52
56 55 56 59 59 60 59 59 59 59 60 60 61 60 59 58 56 58 53 49 49 51 53 53 53 54 54 51 48 44 44 44 45 46 47 48 49 49 50 51 51 51 52
53 54 55 56 58 58 58 59 57 58 58 59 58 59 61 61 63 61 56 52 48 46 49 52 52 53 52 50 48 46 43 43 43 44 45 46 46 47 47 48 48 48 49
53 54 54 53 53 55 56 55 57 58 58 58 56 57 58 58 60 60 58 53 48 47 48 48 51 52 51 49 43 43 46 42 42 42 43 44 44 44 45 45 46 45 46
55 53 52 49 51 51 54 54 56 55 55 55 55 55 57 57 58 59 60 58 55 48 47 47 47 48 50 49 43 50 48 40 40 40 40 42 42 43 43 43 44 43 44
49 52 48 50 50 50 52 53 54 53 53 54 54 53 54 55 56 57 57 57 57 58 47 48 47 47 48 49 43 49 46 42 38 39 39 39 40 41 41 41 41 42 42
45 49 47 45 49 48 49 50 51 51 51 51 53 52 52 54 54 55 55 55 54 56 46 45 47 45 45 46 46 48 47 50 43 37 38 38 38 39 39 39 39 40 40
44 45 46 46 45 46 47 48 48 49 49 49 49 51 50 53 52 53 54 53 52 52 49 40 43 43 43 44 45 45 46 48 46 36 36 37 37 37 37 37 37 37 38
43 43 43 44 44 43 42 44 47 47 47 40 42 39 42 49 47 49 51 51 50 51 48 43 38 43 42 44 43 44 45 45 45 36 35 35 36 36 36 36 36 36 37
38 36 35 35 35 36 38 38 40 37 35 33 34 35 33 33 34 35 34 34 43 46 45 40 36 34 35 32 39 39 39 42 42 43 34 35 34 35 36 36 35 35 36
39 34 34 34 36 36 39 42 40 34 34 33 32 34 37 38 38 41 42 38 35 39 40 38 34 34 33 33 32 32 34 36 32 36 41 39 41 40 39 37 35 33 33
40 41 41 41 41 45 37 39 42 42 42 40 40 41 40 36 36 34 34 35 40 41 40 40 38 33 28 30 31 34 35 33 32 36 33 34 37 35 35 34 32 32 32
44 43 43 43 43 42 36 37 39 45 44 44 44 43 42 40 39 38 33 32 32 32 33 43 36 35 31 32 36 33 34 37 36 36 34 35 38 34 36 34 31 31 30
43 42 42 44 43 40 35 36 37 44 43 44 44 44 42 41 42 40 41 40 39 39 39 40 40 38 38 38 39 38 40 40 40 39 38 37 38 35 38 40 30 29 29
42 40 40 39 37 34 33 33 37 40 40 38 39 42 43 42 35 37 40 38 36 33 31 31 30 28 27 27 28 37 38 38 35 35 32 33 35 32 35 35 40 29 30
42 40 40 40 38 37 33 34 38 41 37 36 38 39 36 38 33 34 39 38 34 32 31 30 29 27 28 26 26 30 33 34 33 31 28 29 31 31 29 36 36 37 37
MSLP
1017.61 1018.37 1018.83 1019.12 1019.15 1019.14 1019.19 1019.49 1019.74 1020.08 1020.47 1020.44 1020.82 1020.84 1020.97 1021.19 1021.54 1022.62 1023.64 1023.67 1023.40 1023.17 1022.98 1022.73 1022.58 1022.78 1022.79 1022.73 1022.48 1022.26 1022.11 1021.96 1021.79 1021.75 1021.68 1021.63 1021.50 1021.18 1021.00 1020.69 1020.55 1020.15 1019.69
1017.86 1018.42 1019.18 1019.36 1019.49 1019.23 1019.22 1019.53 1019.80 1020.22 1020.16 1020.97 1021.34 1021.81 1021.99 1022.22 1022.52 1022.88 1023.56 1024.42 1024.40 1024.11 1023.98 1023.73 1023.60 1023.54 1023.24 1023.05 1022.81 1022.64 1022.58 1022.52 1022.37 1022.25 1022.16 1022.05 1021.86 1021.77 1021.52 1021.15 1020.81 1020.40 1020.01
1017.54 1018.00 1018.53 1018.84 1019.01 1019.24 1019.53 1020.29 1020.44 1020.55 1020.57 1021.55 1021.80 1022.66 1022.84 1023.28 1023.44 1023.60 1023.62 1024.11 1024.93 1025.17 1024.93 1024.75 1024.61 1024.30 1023.84 1023.55 1023.23 1023.17 1023.17 1023.10 1022.91 1022.82 1022.66 1022.48 1022.27 1022.03 1021.82 1021.57 1021.17 1020.81 1020.41
1017.02 1017.56 1018.00 1018.28 1018.50 1019.26 1019.53 1020.16 1020.59 1020.80 1021.15 1021.69 1022.16 1022.78 1023.02 1023.61 1023.87 1024.06 1024.38 1024.51 1024.68 1025.06 1025.82 1025.74 1025.57 1025.27 1024.79 1024.30 1023.83 1023.63 1023.65 1023.61 1023.53 1023.38 1023.21 1023.02 1022.79 1022.53 1022.23 1021.92 1021.52 1021.17 1020.78
1016.90 1017.16 1017.46 1017.77 1018.49 1018.66 1019.44 1020.06 1020.40 1020.78 1021.46 1022.08 1022.90 1023.48 1023.46 1023.98 1024.08 1024.47 1024.97 1025.35 1025.50 1025.14 1025.62 1026.63 1026.53 1026.38 1025.85 1025.28 1024.77 1024.40 1024.23 1024.16 1024.07 1023.90 1023.77 1023.58 1023.41 1023.09 1022.70 1022.30 1021.88 1021.52 1021.12
1016.71 1016.98 1017.06 1017.67 1017.98 1018.25 1019.13 1019.97 1020.57 1021.04 1021.48 1022.15 1023.16 1023.46 1024.30 1024.57 1024.68 1024.98 1025.30 1025.54 1025.64 1025.70 1025.73 1025.83 1026.06 1027.17 1026.75 1026.33 1025.93 1025.43 1025.03 1024.82 1024.70 1024.57 1024.39 1024.21 1023.96 1023.59 1023.22 1022.86 1022.48 1022.03 1021.54
1016.35 1016.71 1017.16 1017.97 1017.99 1018.29 1018.53 1019.55 1020.59 1021.33 1022.06 1022.26 1023.05 1023.81 1024.65 1024.81 1024.83 1024.84 1025.08 1025.28 1025.72 1026.04 1026.17 1026.26 1026.24 1026.42 1026.95 1027.36 1027.18 1026.60 1026.00 1025.69 1025.44 1025.21 1025.00 1024.79 1024.45 1024.09 1023.79 1023.44 1023.03 1022.57 1022.08
1016.05 1016.47 1017.16 1017.65 1018.01 1018.19 1018.65 1019.15 1019.70 1021.07 1021.85 1021.80 1021.35 1022.39 1023.52 1024.63 1024.90 1025.13 1025.26 1025.45 1025.77 1026.22 1026.78 1027.09 1027.32 1027.22 1027.55 1027.81 1028.09 1027.91 1027.28 1026.54 1026.11 1025.87 1025.64 1025.38 1025.06 1024.72 1024.39 1024.03 1023.59 1023.17 1022.69
1015.84 1015.97 1016.65 1017.32 1017.82 1018.18 1019.05 1019.15 1019.31 1020.23 1020.50 1021.15 1021.17 1020.79 1021.26 1021.44 1024.32 1025.47 1025.48 1025.77 1026.05 1026.07 1026.48 1027.11 1027.69 1027.84 1027.99 1027.98 1027.86 1028.28 1028.28 1027.56 1026.86 1026.47 1026.21 1025.98 1025.74 1025.39 1024.94 1024.51 1024.18 1023.74 1023.24
1015.51 1015.96 1016.52 1017.08 1017.68 1017.95 1018.39 1019.11 1019.64 1020.06 1020.17 1020.53 1021.17 1021.49 1021.01 1021.31 1022.08 1024.83 1026.00 1026.05 1026.31 1026.49 1026.75 1026.80 1027.23 1027.56 1028.30 1027.83 1028.59 1029.07 1028.90 1028.36 1027.74 1027.26 1026.82 1026.53 1026.20 1025.86 1025.57 1025.29 1024.78 1024.29 1023.87
1015.42 1015.76 1016.23 1016.49 1017.10 1017.50 1018.10 1018.82 1019.42 1019.70 1019.89 1020.01 1020.41 1020.80 1021.05 1021.31 1021.49 1022.25 1024.43 1025.65 1026.11 1026.59 1027.01 1027.12 1027.23 1027.52 1028.00 1028.05 1028.31 1029.19 1029.07 1028.76 1028.36 1028.01 1027.71 1027.28 1026.86 1026.51 1026.10 1025.71 1025.45 1025.01 1024.61
1015.16 1015.84 1015.86 1016.19 1016.57 1017.20 1017.78 1018.50 1019.06 1019.41 1019.49 1019.88 1020.06 1020.50 1020.38 1020.61 1021.03 1021.44 1022.71 1024.54 1025.20 1026.39 1026.98 1027.42 1027.62 1027.67 1027.83 1028.52 1028.99 1029.37 1029.33 1029.24 1028.93 1028.59 1028.26 1027.97 1027.63 1027.24 1026.81 1026.38 1026.10 1025.67 1025.18
1014.72 1015.14 1015.54 1015.86 1016.68 1017.08 1017.61 1018.11 1018.70 1019.04 1019.43 1019.79 1020.15 1020.33 1020.54 1020.63 1020.66 1021.22 1022.05 1023.49 1024.81 1026.73 1027.19 1027.60 1027.87 1027.83 1028.21 1028.86 1029.03 1029.05 1029.62 1029.60 1029.51 1029.26 1028.96 1028.71 1028.51 1028.14 1027.77 1027.35 1027.10 1026.71 1026.14
1014.13 1015.04 1015.68 1015.63 1016.62 1017.21 1017.63 1018.11 1018.49 1018.86 1019.40 1019.70 1019.99 1020.53 1020.82 1021.21 1021.31 1021.37 1021.52 1022.54 1023.93 1025.16 1026.20 1026.80 1027.79 1027.97 1028.36 1028.99 1029.52 1029.20 1029.55 1030.07 1030.09 1030.02 1029.80 1029.52 1029.29 1028.92 1028.47 1028.07 1027.68 1027.38 1026.89
1013.57 1014.79 1015.34 1015.88 1017.15 1017.14 1017.55 1017.84 1018.24 1018.73 1019.28 1019.76 1020.16 1020.49 1020.82 1021.26 1021.51 1021.81 1021.85 1022.26 1022.40 1023.31 1024.66 1026.29 1026.87 1027.96 1028.10 1028.83 1029.48 1028.83 1029.35 1030.66 1030.59 1030.66 1030.48 1030.22 1029.71 1029.32 1028.98 1028.53 1028.25 1027.99 1027.60
1013.74 1014.37 1015.27 1015.43 1017.09 1018.14 1017.84 1017.58 1018.33 1018.86 1019.17 1019.80 1020.02 1020.73 1021.03 1021.44 1021.75 1021.90 1022.32 1022.68 1022.74 1022.24 1024.13 1026.16 1027.15 1027.86 1028.14 1028.52 1029.65 1029.21 1030.01 1030.48 1031.05 1031.12 1030.88 1030.62 1030.10 1029.79 1029.52 1029.33 1029.04 1028.72 1028.42
1013.59 1014.55 1015.22 1015.38 1016.78 1018.28 1018.30 1018.13 1018.31 1018.85 1019.34 1020.07 1020.32 1020.79 1021.32 1021.79 1021.92 1022.09 1022.61 1022.72 1022.96 1023.06 1024.29 1026.35 1027.51 1028.39 1028.50 1028.66 1029.17 1029.53 1029.93 1029.68 1030.71 1031.41 1031.12 1030.82 1030.57 1030.27 1030.09 1029.99 1029.80 1029.46 1029.07
1013.30 1014.34 1015.36 1015.86 1017.50 1018.18 1018.42 1018.45 1018.55 1019.08 1019.58 1020.10 1020.65 1021.26 1021.81 1022.16 1022.49 1022.69 1022.76 1022.91 1023.17 1023.70 1024.36 1026.40 1027.59 1028.29 1028.64 1029.04 1029.27 1029.56 1029.88 1029.94 1030.09 1031.71 1031.39 1031.14 1030.92 1030.69 1030.63 1030.55 1030.42 1030.04 1029.47
1014.25 1014.56 1015.18 1016.65 1017.49 1017.74 1018.37 1018.87 1019.16 1019.44 1020.37 1020.87 1021.49 1022.05 1022.59 1022.54 1023.13 1023.15 1023.24 1023.46 1024.14 1024.69 1025.60 1026.50 1027.66 1028.43 1029.23 1029.14 1029.50 1029.79 1029.88 1029.93 1030.58 1031.69 1031.50 1031.46 1031.26 1031.07 1030.95 1030.95 1030.80 1030.31 1029.86
1014.60 1015.65 1015.89 1017.32 1017.57 1018.01 1018.95 1019.22 1019.73 1020.18 1021.41 1021.98 1022.67 1023.06 1023.39 1023.89 1024.36 1024.77 1025.34 1025.20 1024.96 1025.26 1025.88 1027.17 1028.21 1029.20 1029.71 1030.73 1030.05 1029.77 1029.93 1030.24 1030.73 1030.80 1031.48 1031.31 1031.26 1031.22 1031.10 1030.96 1031.02 1030.74 1030.28
1014.83 1015.79 1016.51 1017.29 1017.62 1018.54 1019.12 1019.55 1020.13 1020.95 1021.93 1023.02 1023.62 1023.80 1023.89 1024.43 1024.99 1025.00 1025.11 1025.82 1026.27 1026.27 1026.94 1027.62 1028.32 1029.25 1029.81 1030.17 1030.27 1030.73 1030.54 1030.94 1032.07 1031.50 1030.62 1030.78 1030.55 1030.62 1030.79 1030.81 1031.12 1031.16 1030.83
1014.54 1015.72 1016.17 1016.81 1017.43 1018.07 1019.30 1019.60 1020.06 1021.06 1021.99 1022.75 1022.98 1023.57 1024.48 1025.38 1025.64 1025.98 1026.51 1026.85 1026.09 1026.75 1027.30 1027.45 1028.10 1029.12 1030.21 1030.40 1030.66 1030.36 1030.45 1030.72 1030.73 1031.76 1031.39 1031.05 1031.06 1030.97 1031.23 1031.44 1031.69 1031.48 1031.36
1013.97 1014.82 1015.45 1016.42 1017.30 1018.57 1019.28 1019.91 1020.42 1021.17 1022.06 1022.39 1022.78 1023.33 1024.40 1025.68 1025.72 1026.05 1027.25 1027.80 1027.81 1028.09 1028.15 1027.73 1028.58 1029.25 1029.89 1030.43 1030.19 1030.22 1030.42 1030.29 1030.56 1031.12 1031.17 1030.33 1030.61 1030.70 1031.03 1031.20 1031.74 1031.72 1031.58
1013.43 1014.24 1015.49 1016.33 1017.04 1018.56 1019.77 1020.19 1020.77 1021.44 1021.71 1022.30 1022.90 1023.66 1024.58 1025.23 1025.80 1025.77 1026.36 1027.09 1027.74 1028.15 1028.60 1028.72 1029.02 1029.64 1029.93 1030.12 1030.17 1030.09 1029.95 1030.05 1030.38 1030.87 1030.80 1029.61 1030.24 1030.40 1030.57 1030.34 1031.46 1031.72 1031.73
1013.37 1014.63 1015.69 1016.73 1017.73 1019.01 1020.18 1020.62 1020.82 1021.79 1022.37 1022.93 1023.60 1023.96 1024.60 1025.35 1026.78 1026.27 1026.57 1027.34 1028.26 1029.41 1030.46 1030.46 1031.05 1031.59 1031.71 1031.77 1031.54 1030.30 1029.97 1029.74 1030.12 1030.86 1031.93 1030.94 1030.52 1030.53 1030.36 1030.33 1030.34 1031.17 1031.27
1013.51 1014.88 1015.81 1016.89 1017.58 1018.58 1020.23 1020.71 1021.19 1021.59 1022.55 1023.16 1024.10 1024.64 1025.35 1025.75 1027.30 1027.04 1026.94 1027.54 1028.23 1029.60 1030.43 1030.86 1031.50 1031.89 1031.89 1032.05 1032.01 1031.62 1031.10 1030.49 1030.87 1031.02 1032.38 1031.84 1031.06 1030.92 1030.05 1030.00 1030.28 1030.23 1030.21
Wind_Speed
6 6 5 4 5 5 6 7 9 9 10 11 10 11 11 10 11 8 8 19 19 18 18 18 18 17 15 14 14 14 14 16 16 16 17 18 18 19 19 18 17 18 18
8 7 5 4 3 5 7 7 8 9 9 10 11 10 10 10 10 11 9 12 20 20 19 18 18 15 15 17 18 19 19 18 17 17 18 18 18 18 17 17 17 18 18
8 8 6 6 7 7 9 8 8 9 10 9 13 10 10 10 9 9 7 8 12 19 19 19 17 18 17 17 18 18 19 19 19 19 19 19 18 18 18 18 18 18 18
12 9 7 6 9 9 8 9 8 8 9 9 9 8 9 9 10 10 8 6 6 8 14 18 19 19 19 19 18 17 18 17 18 18 18 19 19 19 19 18 18 18 18
13 10 8 9 11 9 8 8 9 10 9 9 9 7 8 7 9 8 9 9 8 6 8 14 19 20 19 20 20 18 18 18 18 18 18 18 18 19 18 19 20 19 19
13 10 9 11 10 10 8 10 10 10 10 11 10 10 7 7 7 7 8 7 8 8 7 6 8 11 19 20 20 19 19 19 19 18 18 18 18 18 19 19 19 20 20
13 11 9 10 10 10 12 13 11 13 10 11 11 10 8 8 7 6 6 7 8 8 8 7 5 6 8 18 19 19 19 19 19 18 19 19 19 18 19 20 20 21 20
13 12 11 11 11 10 14 15 14 11 10 12 6 8 7 5 6 6 6 6 7 7 8 9 10 9 8 6 13 18 18 18 19 19 19 19 20 19 19 19 20 20 21
13 13 13 10 11 10 9 12 14 16 10 10 10 2 5 4 8 3 6 6 6 6 7 8 8 7 8 6 9 13 16 17 17 18 17 18 19 20 20 20 20 21 21
12 13 13 12 12 9 12 11 11 11 8 10 8 4 4 10 5 6 2 5 6 6 6 5 6 7 7 5 13 14 14 16 17 18 18 19 19 19 19 21 21 21 22
12 13 13 13 13 10 11 12 13 12 9 9 8 7 5 3 5 5 7 7 6 5 5 4 5 5 8 4 9 11 14 16 16 17 18 19 19 20 20 20 21 22 22
10 12 11 12 12 12 12 12 12 12 9 7 6 8 6 4 6 4 9 11 8 6 5 5 4 4 5 7 10 13 13 15 16 16 18 19 19 19 20 20 22 21 22
11 12 13 13 11 11 12 11 11 10 9 8 9 6 4 4 3 5 8 10 8 4 3 4 4 5 6 3 8 11 14 14 14 16 16 17 17 18 19 20 21 21 22
12 15 11 11 10 12 11 10 9 8 9 8 9 6 5 5 4 5 7 9 10 7 9 9 4 4 6 4 7 2 12 12 13 14 15 15 15 17 18 18 20 21 21
13 16 14 11 11 12 13 12 9 10 10 8 8 8 6 5 5 5 5 9 7 8 8 7 5 5 5 6 4 6 9 11 11 11 12 13 15 17 18 19 20 20 21
14 17 14 14 12 10 12 12 11 11 10 8 7 9 8 6 7 6 6 4 4 3 6 7 5 6 6 5 4 5 8 11 10 8 10 11 14 16 18 18 19 19 20
14 14 13 13 14 12 11 11 11 12 12 10 10 10 9 9 7 7 6 5 4 3 9 7 7 6 6 7 7 5 5 2 9 7 8 10 12 15 17 17 18 18 17
14 15 13 13 13 11 11 12 13 12 12 12 11 10 10 7 9 8 6 7 6 6 9 12 8 6 6 6 5 5 4 3 6 7 8 9 11 13 14 16 16 16 17
11 11 14 13 13 10 10 8 11 12 11 7 8 7 5 9 7 7 7 8 7 7 8 8 7 6 6 3 6 4 3 4 5 6 7 7 10 11 13 14 16 16 16
11 7 9 8 8 8 9 9 9 10 10 8 7 7 7 9 8 7 6 7 5 8 9 8 7 5 4 1 3 1 4 2 1 4 4 5 3 5 9 11 15 15 15
14 11 12 10 12 11 9 12 12 11 11 10 7 7 9 10 9 8 7 8 7 7 7 7 7 6 5 5 3 2 0 3 2 3 1 3 2 4 5 9 11 14 15
16 16 15 15 13 9 13 12 13 11 11 11 11 11 12 14 14 16 16 13 9 8 8 6 6 6 4 5 4 2 1 4 4 2 3 3 2 3 3 5 10 12 13
18 16 15 15 14 12 16 15 12 11 10 10 11 12 10 9 13 15 17 17 16 16 8 6 8 6 7 4 3 5 3 4 2 3 5 2 0 2 1 4 8 10 12
17 14 14 14 13 11 18 19 12 12 11 12 11 11 12 13 11 14 13 13 12 10 7 6 8 7 6 4 1 3 1 1 3 4 6 2 2 3 2 1 8 6 9
15 14 14 14 14 14 19 18 14 12 11 10 8 10 11 11 11 11 12 12 12 11 12 18 16 13 11 10 7 4 1 3 2 2 5 4 2 4 2 4 0 5 2
15 13 14 14 15 16 20 19 15 11 14 10 10 10 6 13 14 7 9 11 12 10 9 9 8 8 6 7 9 7 4 2 1 4 5 5 4 4 3 2 4 5 5
Wind_Direction
153 146 147 169 152 149 143 142 138 134 122 107 99 97 97 92 98 99 78 64 59 61 57 56 59 57 58 55 51 50 46 44 43 41 36 30 25 20 15 15 7 6 11
160 151 156 157 167 180 165 155 144 137 120 114 106 101 100 97 96 100 94 73 62 59 55 53 56 48 52 53 58 54 54 51 48 45 40 33 29 24 18 14 12 11 8
161 153 151 161 169 159 146 139 140 129 119 116 109 106 103 98 94 93 89 100 84 59 57 55 51 48 48 51 58 59 54 51 48 44 39 34 31 26 20 15 13 10 11
161 152 155 166 161 157 153 151 145 136 130 125 116 115 105 100 97 91 85 86 89 102 60 58 52 47 42 40 44 52 53 48 45 40 36 32 28 25 23 19 18 13 8
173 162 166 164 164 153 157 156 155 145 131 122 116 109 95 100 91 86 88 87 79 76 108 72 59 47 47 40 39 42 47 47 45 41 36 32 26 23 20 20 20 17 12
175 183 169 160 170 157 150 167 157 147 142 131 124 104 98 98 97 100 99 95 87 87 82 78 104 68 48 47 38 40 44 46 44 41 37 33 29 25 24 22 19 16 16
178 178 168 162 172 166 158 158 153 149 144 133 124 109 111 102 97 96 94 95 91 80 79 76 73 75 69 51 43 36 41 45 47 44 39 35 33 27 27 24 21 19 15
174 173 170 174 175 165 168 163 159 162 161 170 145 140 152 131 102 88 93 92 87 91 85 65 55 56 70 68 55 42 35 39 44 42 41 37 33 31 29 26 24 21 17
178 172 171 175 170 165 175 173 169 176 170 179 201 278 174 145 143 84 99 96 108 103 113 107 98 87 72 66 67 60 37 31 39 40 41 41 37 32 30 28 27 27 23
174 172 167 173 172 176 176 181 179 180 179 180 187 236 327 113 176 150 163 127 124 118 105 106 104 97 93 83 82 54 48 37 39 41 40 38 36 35 34 30 25 30 27
177 169 175 171 176 177 178 187 187 196 192 178 196 173 149 140 151 159 146 173 146 122 111 109 107 105 102 52 77 68 53 43 41 43 41 39 37 34 30 31 27 29 27
171 175 169 173 170 177 175 184 186 189 194 188 191 198 181 183 179 171 141 164 149 137 122 114 124 109 90 88 81 76 60 50 43 41 41 38 37 34 32 30 30 21 24
178 175 177 165 172 171 172 174 183 182 185 195 190 190 204 200 191 185 139 152 151 158 172 123 116 112 98 89 82 81 59 53 43 41 39 41 38 37 33 31 34 25 29
174 168 169 161 154 158 162 166 171 175 179 181 176 182 178 173 181 184 168 163 150 165 174 138 121 115 107 99 80 256 90 58 52 47 37 40 41 42 37 34 34 29 29
164 169 156 145 161 156 163 162 156 158 162 159 158 156 168 162 172 175 181 175 180 166 158 174 145 128 120 132 47 89 87 63 54 53 47 36 44 43 38 32 32 30 27
165 158 152 147 153 167 160 159 152 150 147 147 144 153 148 146 150 155 164 163 239 170 126 142 118 125 124 113 102 110 94 112 60 45 48 45 43 44 41 34 31 27 28
149 152 143 137 149 170 163 154 147 145 144 145 141 143 141 152 151 150 156 153 132 132 126 119 130 131 131 129 140 132 154 90 100 51 54 53 46 46 41 37 28 28 27
142 145 143 150 158 167 160 150 143 144 143 144 138 141 147 148 147 148 144 131 122 126 131 141 141 140 126 126 128 137 117 73 92 80 66 59 51 46 40 34 31 22 27
145 143 148 159 166 153 135 151 142 139 138 102 111 94 130 145 132 128 132 131 119 115 125 136 134 138 134 137 154 163 145 124 99 145 129 87 57 44 44 40 30 23 25
146 134 121 125 118 112 135 124 118 100 116 101 103 116 105 113 107 95 71 49 104 118 120 129 133 130 124 74 90 173 138 46 30 146 93 60 37 83 56 40 35 23 21
148 138 130 130 131 132 142 142 132 119 128 125 119 120 121 121 120 110 133 123 120 122 130 134 131 140 137 144 125 104 137 179 162 326 28 37 25 24 29 54 34 30 22
151 159 152 146 145 144 140 130 137 140 147 146 140 126 120 119 110 91 74 58 72 136 142 137 142 117 120 136 124 112 159 221 211 86 249 108 322 70 65 34 29 29 25
157 154 148 150 147 136 141 134 138 144 150 144 140 137 138 123 130 116 103 95 73 54 36 120 125 125 133 130 151 174 164 223 256 120 248 163 51 133 195 119 43 26 21
151 145 150 151 140 130 152 147 157 146 140 143 143 144 143 152 137 137 128 120 115 105 93 98 105 99 97 105 61 6 339 242 177 128 327 278 43 5 316 197 108 41 10
144 144 144 144 141 144 152 156 148 143 134 133 136 150 152 140 136 134 135 127 115 107 82 79 87 88 74 53 18 280 93 265 196 87 31 313 35 327 309 260 72 143 260
147 150 149 158 148 146 159 159 154 150 151 147 145 133 115 134 156 177 144 143 136 136 128 123 116 102 82 73 46 33 354 346 357 210 65 309 348 354 301 139 295 328 334